Regional Weather Roundup
Issued by NWS State College, PA

Home | Current Version | Previous Version | Text Only | Print | Product List | Glossary Off
Versions: 1 2 3 4 5 6 7 8 9 10 11 12 13 14 15 16 17 18 19 20 21 22 23 24 25 26 27 28 29 30 31 32 33 34 35 36 37 38 39 40 41 42 43 44 45 46 47 48 49 50

000
ASUS41 KCTP 252103
RWRCTP

REGIONAL WEATHER ROUNDUP
NATIONAL WEATHER SERVICE STATE COLLEGE PA
500 PM EDT MON MAY 25 2015

Note: "fair" indicates few or no clouds below 12,000 feet with no
significant weather and/or obstructions to visibility.

* = STATION THAT DOES NOT REPORT PRECIPITATION /E.G. RAIN...SNOW...ETC/
    THUNDER OR FOG.

PAZ002>004-007>009-013>016-020>023-029>032-252200-
WESTERN PENNSYLVANIA

CITY           SKY/WX    TMP DP  RH WIND       PRES   REMARKS
ERIE           CLOUDY    83  59  44 S14       30.01F
MEADVILLE      PTSUNNY   80  59  48 S17G24    30.07F
FRANKLIN*      MOSUNNY   81  59  47 S18G25    30.12S
NEW CASTLE     MOCLDY    84  63  49 S8G18     30.10F
BEAVER COUNTY  NOT AVBL
BUTLER*        PTSUNNY   81  59  47 SW9       30.14F
PITTSBURGH INT PTSUNNY   82  58  43 SW16G23   30.13S
PITTSBURGH     PTSUNNY   81  55  40 SW13      30.13F
INDIANA*       MOSUNNY   82  59  44 SW12      30.17F
LATROBE        MOSUNNY   82  57  42 SW12      30.16F
WASHINGTON CO* PTSUNNY   79  61  53 SW9G21    30.16S
$$

PAZ004>006-010>012-017>019-024>028-033>037-041-042-045-046-049>053-252200-
CENTRAL PENNSYLVANIA

CITY           SKY/WX    TMP DP  RH WIND       PRES   REMARKS
BRADFORD       CLOUDY    78  56  46 SW9G25    30.14F
DUBOIS         PTSUNNY   81  57  43 SW10G20   30.14F
CLEARFIELD     PTSUNNY   83  51  33 SW10      30.14F
JOHNSTOWN      MOSUNNY   80  51  36 SW10G18   30.19S
ALTOONA        MOSUNNY   83  53  35 S12G18    30.16F
STATE COLLEGE  MOSUNNY   82  57  42 S13G20    30.13F
WILLIAMSPORT   CLOUDY    84  57  39 S13G21    30.10S
SELINSGROVE    PTSUNNY   86  58  38 S13       30.14F
FT INDIANTOWN  MOSUNNY   83  58  41 SW15      30.16S
CAPITAL CITY   PTSUNNY   83  56  39 SW10      30.15F
HARRISBURG     PTSUNNY   84  57  39 SW8       30.15F
YORK           MOSUNNY   82  59  45 S9G21     30.17F
$$

PAZ038>040-043-044-047-048-054-055-060>062-067>071-252200-
EASTERN PENNSYLVANIA

CITY           SKY/WX    TMP DP  RH WIND       PRES   REMARKS
SCRANTON       SUNNY     87  51  28 SW15      30.13S
MOUNT POCONO   SUNNY     81  47  30 SW18G25   30.20F
ALLENTOWN      SUNNY     86  55  34 S20G25    30.16S
QUAKERTOWN*    CLEAR     82  55  39 SW10G22   30.19S
READING        MOSUNNY   84  59  42 S10       30.15F
LANCASTER      PTSUNNY   82  59  45 S17G23    30.17S
COATESVILLE    PTCLDY    81  61  50 S10G16    30.21F
POTTSTOWN      MOSUNNY   82  56  40 S16G23    30.20S
BLUE BELL      SUNNY     86  59  39 S10G20    30.18S
DOYLESTOWN     SUNNY     83  52  34 SW13G21   30.17S
WILLOW GROVE   NOT AVBL
NORTH PHILA    SUNNY     86  53  32 SW16G28   30.20S
PHILADELPHIA   PTSUNNY   86  54  33 SW21      30.20S
$$



USA.gov is the U.S. government's official web portal to all federal, state and local government web resources and services.